KANOPUS-V-IK

Satellite information

Favourite Embed

Satellite Type and Status

PAYLOADIN ORBIT

Key statistics

Satellite KANOPUS-V-IK at a glance.

Uptime

3026

Days in orbit

Revolutions

≈ 15.2

Per day

Orbit

SSO

Sun Synchronous Orbit

Inclination

97.4

Latest

Satellite identification and parameters

Extended collection of information and parameters for KANOPUS-V-IK.

Object identification

Identified? True

Debris? False

Object name: KANOPUS-V-IK

International designator: 2017-042A

Object number (NORAD): 42825

Object ID (CCSDS): 42825

Country: COMMONWEALTH OF INDEPENDENT STATES (CIS)

Current information (Y/N): Y

RCS size: LARGE

Orbital parameters

Period: 94.545 minutes

Inclination: 97.3666 deg

SMA: 6874.666 km

Apoapsis: 497.777 km

Periapsis: 495.286 km

RAAN: 204.0185 deg

Eccentricy: 0.00018117

Argument of periapsis: 89.1159 deg

Mean anomaly: 271.0286 deg

Mean motion: 15.2308921 rev/day

Mean motion (dot): 0.0000446 rev/day2

B* drag term: 0.00019215477 1/REarth

Two-line elements (TLE)

Creation date: Oct. 26, 2025, 2:54 a.m.

Reference frame: TEME

Reference center: EARTH

Epoch: Oct. 26, 2025, 12:21 a.m. UTC

TLE line 0: 0 KANOPUS-V-IK

TLE line 1: 1 42825U 17042A 25299.01484962 .00004460 00000-0 19215-3 0 9991

TLE line 2: 2 42825 97.3666 204.0185 0001812 89.1159 271.0286 15.23089210459729

Live tracking on map

Real-time ground track for satellite KANOPUS-V-IK.

In-orbit conjunctions

There are no conjunctions computed for KANOPUS-V-IK, at the moment. Check back to stay up to date, as we update our databases every day.

Go to all conjunctions

Associated space launch

Kanopus-V-IK is a small Russian remote sensing satellite for monitoring wildfires. Weighing about 473 kg, it is intended for 5 years of operation in a 510 km sun-synchronous orbit.

KANOPUS-V-IK was lifted into orbit during the mission ‘Soyuz-2.1a/Fregat | Kanopus-V-IK’, on board a Soyuz 2.1a/Fregat-M space rocket.

The launch took place on July 14, 2017, 6:36 a.m. from 31/6.

For more information about the launch, click the button.

Launch to space Soyuz-2.1a/Fregat | Kanopus-V-IK
Soyuz-2.1a/Fregat | Kanopus-V-IK

Agency: N/A

Status: Launch was a Partial Failure

Launch date: July 14, 2017, 6:36 a.m. UTC

Rocket: Soyuz 2.1a/Fregat-M

Launch pad: 31/6

Location: Baikonur Cosmodrome, Republic of Kazakhstan

...

Latest news about this satellite

There are no fresh news available about this satellite. Check back as we update our databases every day.


Newsletter sign-up

Weekly statistics, charts and insights to help you stay on top of the space industry.